Time,TemperatureF,DewpointF,PressureIn,WindDirection,WindDirectionDegrees,WindSpeedMPH,WindSpeedGustMPH,Humidity,HourlyPrecipIn,Conditions,Clouds,dailyrainin,SolarRadiationWatts/m^2,SoftwareType,DateUTC
2013-07-31 00:04:00,66.2,64.7,30.10,NE,51,0.0,0.0,95,0.00,,,0.00,0.00,VWS V14.01,2013-07-31 05:04:00,
2013-07-31 00:09:00,66.2,64.7,30.11,NE,51,0.0,0.0,95,0.00,,,0.00,0.00,VWS V14.01,2013-07-31 05:09:00,
2013-07-31 00:14:00,66.2,65.0,30.11,NE,51,1.0,1.0,96,0.00,,,0.00,0.00,VWS V14.01,2013-07-31 05:14:00,
2013-07-31 00:19:00,66.2,65.0,30.11,NE,51,1.0,1.0,96,0.00,,,0.00,0.00,VWS V14.01,2013-07-31 05:19:00,
2013-07-31 00:24:00,66.2,65.0,30.11,NE,51,0.0,2.0,96,0.00,,,0.00,0.00,VWS V14.01,2013-07-31 05:24:00,
2013-07-31 00:29:00,66.2,65.0,30.11,NE,51,0.0,2.0,96,0.00,,,0.00,0.00,VWS V14.01,2013-07-31 05:29:00,
2013-07-31 00:34:00,66.1,64.6,30.11,NE,51,0.0,1.0,95,0.00,,,0.00,0.00,VWS V14.01,2013-07-31 05:34:00,
2013-07-31 00:39:00,66.1,64.6,30.11,NE,51,1.0,2.0,95,0.00,,,0.00,0.00,VWS V14.01,2013-07-31 05:39:00,
2013-07-31 00:44:00,66.1,64.6,30.11,NE,51,0.0,0.0,95,0.00,,,0.00,0.00,VWS V14.01,2013-07-31 05:44:00,
2013-07-31 00:49:00,66.1,64.6,30.11,NE,51,0.0,1.0,95,0.00,,,0.00,0.00,VWS V14.01,2013-07-31 05:49:00,
2013-07-31 00:54:00,66.1,64.6,30.11,NE,51,0.0,1.0,95,0.00,,,0.00,0.00,VWS V14.01,2013-07-31 05:54:00,
2013-07-31 00:59:00,66.0,64.5,30.11,NE,51,0.0,2.0,95,0.00,,,0.00,0.00,VWS V14.01,2013-07-31 05:59:00,
2013-07-31 01:04:00,66.0,64.5,30.10,NE,51,0.0,1.0,95,0.00,,,0.00,0.00,VWS V14.01,2013-07-31 06:04:00,
2013-07-31 01:09:00,65.9,64.4,30.10,NE,51,0.0,1.0,95,0.00,,,0.00,0.00,VWS V14.01,2013-07-31 06:09:00,
2013-07-31 01:14:00,65.9,64.4,30.10,NE,51,0.0,0.0,95,0.00,,,0.00,0.00,VWS V14.01,2013-07-31 06:14:00,
2013-07-31 01:19:00,65.9,64.4,30.09,NE,51,0.0,0.0,95,0.00,,,0.00,0.00,VWS V14.01,2013-07-31 06:19:00,
2013-07-31 01:24:00,65.9,64.7,30.09,NE,51,0.0,0.0,96,0.00,,,0.00,0.00,VWS V14.01,2013-07-31 06:24:00,
2013-07-31 01:29:00,65.9,64.7,30.09,NE,51,0.0,0.0,96,0.00,,,0.00,0.00,VWS V14.01,2013-07-31 06:29:00,
2013-07-31 01:34:00,65.9,64.7,30.10,NE,51,1.0,2.0,96,0.00,,,0.00,0.00,VWS V14.01,2013-07-31 06:34:00,
2013-07-31 01:39:00,65.9,64.7,30.09,NE,51,0.0,0.0,96,0.00,,,0.00,0.00,VWS V14.01,2013-07-31 06:39:00,
2013-07-31 01:44:00,65.8,64.6,30.09,NE,51,0.0,0.0,96,0.00,,,0.00,0.00,VWS V14.01,2013-07-31 06:44:00,
2013-07-31 01:49:00,65.8,64.6,30.09,NE,51,0.0,1.0,96,0.00,,,0.00,0.00,VWS V14.01,2013-07-31 06:49:00,
2013-07-31 01:54:00,65.8,64.6,30.09,NE,51,0.0,1.0,96,0.00,,,0.00,0.00,VWS V14.01,2013-07-31 06:54:00,
2013-07-31 01:59:00,65.8,64.6,30.10,NE,51,0.0,1.0,96,0.00,,,0.00,0.00,VWS V14.01,2013-07-31 06:59:00,
2013-07-31 02:04:00,65.8,64.6,30.09,NE,51,1.0,1.0,96,0.00,,,0.00,0.00,VWS V14.01,2013-07-31 07:04:00,
2013-07-31 02:09:00,65.8,64.6,30.10,NE,51,0.0,0.0,96,0.00,,,0.00,0.00,VWS V14.01,2013-07-31 07:09:00,
2013-07-31 02:14:00,65.8,64.6,30.10,NE,51,0.0,0.0,96,0.00,,,0.00,0.00,VWS V14.01,2013-07-31 07:14:00,
2013-07-31 02:19:00,65.8,64.6,30.10,NE,51,0.0,0.0,96,0.00,,,0.00,0.00,VWS V14.01,2013-07-31 07:19:00,
2013-07-31 02:24:00,65.8,64.6,30.10,NE,51,0.0,0.0,96,0.00,,,0.00,0.00,VWS V14.01,2013-07-31 07:24:00,
2013-07-31 02:29:00,65.8,64.6,30.10,NE,51,0.0,0.0,96,0.00,,,0.00,0.00,VWS V14.01,2013-07-31 07:29:00,
2013-07-31 02:34:00,65.8,64.6,30.10,NE,51,1.0,1.0,96,0.00,,,0.00,0.00,VWS V14.01,2013-07-31 07:34:00,
2013-07-31 02:39:00,65.8,64.6,30.10,NE,51,0.0,1.0,96,0.00,,,0.00,0.00,VWS V14.01,2013-07-31 07:39:00,
2013-07-31 02:44:00,65.8,64.6,30.10,NE,51,1.0,1.0,96,0.00,,,0.00,0.00,VWS V14.01,2013-07-31 07:44:00,
2013-07-31 02:49:00,65.8,64.6,30.10,NE,51,0.0,0.0,96,0.00,,,0.00,0.00,VWS V14.01,2013-07-31 07:49:00,
2013-07-31 02:55:00,65.8,64.6,30.10,NE,51,0.0,0.0,96,0.00,,,0.00,0.00,VWS V14.01,2013-07-31 07:55:00,
2013-07-31 03:00:00,65.9,64.7,30.10,NE,51,0.0,0.0,96,0.00,,,0.00,0.00,VWS V14.01,2013-07-31 08:00:00,
2013-07-31 03:05:00,65.9,64.7,30.09,NE,51,0.0,1.0,96,0.00,,,0.00,0.00,VWS V14.01,2013-07-31 08:05:00,
2013-07-31 03:10:00,65.9,64.7,30.09,NE,51,0.0,0.0,96,0.00,,,0.00,0.00,VWS V14.01,2013-07-31 08:10:00,
2013-07-31 03:15:00,65.9,64.7,30.09,NE,51,0.0,1.0,96,0.00,,,0.00,0.00,VWS V14.01,2013-07-31 08:15:00,
2013-07-31 03:20:00,65.9,64.7,30.10,NE,51,0.0,0.0,96,0.00,,,0.00,0.00,VWS V14.01,2013-07-31 08:20:00,
2013-07-31 03:25:00,65.9,64.7,30.10,NE,51,0.0,0.0,96,0.00,,,0.00,0.00,VWS V14.01,2013-07-31 08:25:00,
2013-07-31 03:30:00,65.9,64.7,30.10,NE,51,0.0,1.0,96,0.00,,,0.00,0.00,VWS V14.01,2013-07-31 08:30:00,
2013-07-31 03:35:00,65.9,64.7,30.10,NE,51,0.0,0.0,96,0.00,,,0.00,0.00,VWS V14.01,2013-07-31 08:35:00,
2013-07-31 03:40:00,65.9,64.7,30.10,NE,51,0.0,0.0,96,0.00,,,0.00,0.00,VWS V14.01,2013-07-31 08:40:00,
2013-07-31 03:45:00,65.9,64.7,30.10,NE,51,0.0,0.0,96,0.00,,,0.00,0.00,VWS V14.01,2013-07-31 08:45:00,
2013-07-31 03:51:00,65.9,64.7,30.10,NE,51,0.0,0.0,96,0.00,,,0.00,0.00,VWS V14.01,2013-07-31 08:51:00,
2013-07-31 03:56:00,65.9,64.7,30.10,NE,51,0.0,0.0,96,0.00,,,0.00,0.00,VWS V14.01,2013-07-31 08:56:00,
2013-07-31 04:01:00,65.9,64.7,30.10,NE,51,0.0,0.0,96,0.00,,,0.00,0.00,VWS V14.01,2013-07-31 09:01:00,
2013-07-31 04:06:00,65.9,64.7,30.10,NE,51,0.0,0.0,96,0.00,,,0.00,0.00,VWS V14.01,2013-07-31 09:06:00,
2013-07-31 04:11:00,65.9,64.7,30.09,NE,51,0.0,0.0,96,0.00,,,0.00,0.00,VWS V14.01,2013-07-31 09:11:00,
2013-07-31 04:16:00,65.9,64.7,30.09,NE,51,0.0,0.0,96,0.00,,,0.00,0.00,VWS V14.01,2013-07-31 09:16:00,
2013-07-31 04:21:00,65.9,64.7,30.09,NE,51,0.0,0.0,96,0.00,,,0.00,0.00,VWS V14.01,2013-07-31 09:21:00,
2013-07-31 04:26:00,65.9,64.7,30.10,NE,51,0.0,0.0,96,0.00,,,0.00,0.00,VWS V14.01,2013-07-31 09:26:00,
2013-07-31 04:31:00,65.8,64.6,30.10,NE,51,0.0,1.0,96,0.00,,,0.00,0.00,VWS V14.01,2013-07-31 09:31:00,
2013-07-31 04:36:00,65.8,64.6,30.10,NE,51,0.0,0.0,96,0.00,,,0.00,0.00,VWS V14.01,2013-07-31 09:36:00,
2013-07-31 04:41:00,65.8,64.6,30.10,NE,51,0.0,0.0,96,0.00,,,0.00,0.00,VWS V14.01,2013-07-31 09:41:00,
2013-07-31 04:46:00,65.8,64.6,30.10,NE,51,0.0,0.0,96,0.00,,,0.00,0.00,VWS V14.01,2013-07-31 09:46:00,
2013-07-31 04:51:00,65.8,64.6,30.10,NE,51,0.0,1.0,96,0.00,,,0.00,0.00,VWS V14.01,2013-07-31 09:51:00,
2013-07-31 04:56:00,65.8,64.6,30.10,NE,51,0.0,0.0,96,0.00,,,0.00,0.00,VWS V14.01,2013-07-31 09:56:00,
2013-07-31 05:01:00,65.8,64.6,30.10,NE,51,0.0,0.0,96,0.00,,,0.00,0.00,VWS V14.01,2013-07-31 10:01:00,
2013-07-31 05:06:00,65.8,64.6,30.10,NE,51,0.0,2.0,96,0.00,,,0.00,0.00,VWS V14.01,2013-07-31 10:06:00,
2013-07-31 05:11:00,65.7,64.5,30.10,NE,51,0.0,1.0,96,0.00,,,0.00,0.00,VWS V14.01,2013-07-31 10:11:00,
2013-07-31 05:16:00,65.7,64.5,30.11,NE,51,0.0,0.0,96,0.00,,,0.00,0.00,VWS V14.01,2013-07-31 10:16:00,
2013-07-31 05:21:00,65.7,64.5,30.11,NE,51,0.0,0.0,96,0.00,,,0.00,0.00,VWS V14.01,2013-07-31 10:21:00,
2013-07-31 05:26:00,65.7,64.5,30.11,NE,51,0.0,0.0,96,0.00,,,0.00,0.00,VWS V14.01,2013-07-31 10:26:00,
2013-07-31 05:31:00,65.7,64.5,30.11,NE,51,0.0,0.0,96,0.00,,,0.00,0.00,VWS V14.01,2013-07-31 10:31:00,
2013-07-31 05:36:00,65.7,64.5,30.11,NE,51,0.0,0.0,96,0.00,,,0.00,0.00,VWS V14.01,2013-07-31 10:36:00,
2013-07-31 05:41:00,65.6,64.4,30.12,NE,51,0.0,0.0,96,0.00,,,0.00,0.00,VWS V14.01,2013-07-31 10:41:00,
2013-07-31 05:46:00,65.6,64.4,30.12,NE,51,0.0,2.0,96,0.00,,,0.00,0.00,VWS V14.01,2013-07-31 10:46:00,
2013-07-31 05:52:00,65.6,64.4,30.12,NE,51,0.0,1.0,96,0.00,,,0.00,0.00,VWS V14.01,2013-07-31 10:52:00,
2013-07-31 05:57:00,65.6,64.4,30.12,NE,51,0.0,2.0,96,0.00,,,0.00,0.00,VWS V14.01,2013-07-31 10:57:00,
2013-07-31 06:02:00,65.6,64.4,30.12,NE,51,1.0,3.0,96,0.00,,,0.00,0.00,VWS V14.01,2013-07-31 11:02:00,
2013-07-31 06:07:00,65.6,64.4,30.12,North,360,1.0,1.0,96,0.00,,,0.00,0.00,VWS V14.01,2013-07-31 11:07:00,
2013-07-31 06:12:00,65.6,64.4,30.12,North,360,0.0,2.0,96,0.00,,,0.00,0.00,VWS V14.01,2013-07-31 11:12:00,
2013-07-31 06:17:00,65.6,64.4,30.12,WNW,297,1.0,5.0,96,0.00,,,0.00,0.00,VWS V14.01,2013-07-31 11:17:00,
2013-07-31 06:22:00,65.5,64.3,30.13,North,360,1.0,3.0,96,0.00,,,0.00,7.00,VWS V14.01,2013-07-31 11:22:00,
2013-07-31 06:27:00,65.5,64.3,30.12,North,5,1.0,3.0,96,0.00,,,0.00,11.00,VWS V14.01,2013-07-31 11:27:00,
2013-07-31 06:32:00,65.5,64.3,30.13,North,10,2.0,5.0,96,0.00,,,0.00,14.00,VWS V14.01,2013-07-31 11:32:00,
2013-07-31 06:37:00,65.5,64.3,30.12,NNE,32,4.0,4.0,96,0.00,,,0.00,18.00,VWS V14.01,2013-07-31 11:37:00,
2013-07-31 06:42:00,65.5,64.3,30.12,North,360,2.0,4.0,96,0.00,,,0.00,23.00,VWS V14.01,2013-07-31 11:42:00,
2013-07-31 06:47:00,65.5,64.3,30.12,North,360,4.0,4.0,96,0.00,,,0.00,35.00,VWS V14.01,2013-07-31 11:47:00,
2013-07-31 06:52:00,65.5,64.3,30.12,North,5,0.0,4.0,96,0.00,,,0.00,42.00,VWS V14.01,2013-07-31 11:52:00,
2013-07-31 06:57:00,65.5,64.3,30.13,North,355,1.0,3.0,96,0.00,,,0.00,39.00,VWS V14.01,2013-07-31 11:57:00,
2013-07-31 07:02:00,65.6,64.4,30.13,NW,325,2.0,2.0,96,0.00,,,0.00,44.00,VWS V14.01,2013-07-31 12:02:00,
2013-07-31 07:07:00,65.7,64.5,30.12,North,360,2.0,4.0,96,0.00,,,0.00,37.00,VWS V14.01,2013-07-31 12:07:00,
2013-07-31 07:12:00,65.7,64.5,30.12,North,5,2.0,3.0,96,0.00,,,0.00,39.00,VWS V14.01,2013-07-31 12:12:00,
2013-07-31 07:17:00,65.8,64.6,30.12,NNE,17,1.0,3.0,96,0.00,,,0.00,42.00,VWS V14.01,2013-07-31 12:17:00,
2013-07-31 07:22:00,65.8,64.6,30.12,North,10,1.0,4.0,96,0.00,,,0.00,51.00,VWS V14.01,2013-07-31 12:22:00,
2013-07-31 07:27:00,65.8,64.6,30.13,NNE,32,1.0,4.0,96,0.00,,,0.00,58.00,VWS V14.01,2013-07-31 12:27:00,
2013-07-31 07:32:00,65.8,64.6,30.13,NE,41,3.0,5.0,96,0.00,,,0.00,69.00,VWS V14.01,2013-07-31 12:32:00,
2013-07-31 07:37:00,65.9,64.7,30.13,North,356,1.0,5.0,96,0.00,,,0.00,105.00,VWS V14.01,2013-07-31 12:37:00,
2013-07-31 07:42:00,65.9,64.7,30.13,NNE,19,3.0,4.0,96,0.00,,,0.00,102.00,VWS V14.01,2013-07-31 12:42:00,
2013-07-31 07:47:00,66.3,65.1,30.13,North,5,2.0,4.0,96,0.00,,,0.00,81.00,VWS V14.01,2013-07-31 12:47:00,
2013-07-31 07:52:00,66.1,64.6,30.13,North,5,0.0,5.0,95,0.00,,,0.00,69.00,VWS V14.01,2013-07-31 12:52:00,
2013-07-31 07:57:00,66.1,64.6,30.13,North,353,3.0,4.0,95,0.00,,,0.00,72.00,VWS V14.01,2013-07-31 12:57:00,
2013-07-31 08:02:00,66.1,64.6,30.13,North,360,1.0,2.0,95,0.00,,,0.00,95.00,VWS V14.01,2013-07-31 13:02:00,
2013-07-31 08:07:00,66.3,64.8,30.13,North,355,2.0,6.0,95,0.00,,,0.00,113.00,VWS V14.01,2013-07-31 13:07:00,
2013-07-31 08:12:00,66.3,64.8,30.13,NNW,345,2.0,2.0,95,0.00,,,0.00,107.00,VWS V14.01,2013-07-31 13:12:00,
2013-07-31 08:17:00,66.4,64.9,30.14,North,349,0.0,0.0,95,0.00,,,0.00,120.00,VWS V14.01,2013-07-31 13:17:00,
2013-07-31 08:22:00,66.7,65.2,30.14,NNW,335,3.0,5.0,95,0.00,,,0.00,239.00,VWS V14.01,2013-07-31 13:22:00,
2013-07-31 08:27:00,67.3,65.8,30.14,NW,318,0.0,3.0,95,0.00,,,0.00,225.00,VWS V14.01,2013-07-31 13:27:00,
2013-07-31 08:32:00,67.7,66.2,30.14,NW,311,0.0,5.0,95,0.00,,,0.00,255.00,VWS V14.01,2013-07-31 13:32:00,
2013-07-31 08:37:00,68.4,66.6,30.14,NNW,327,3.0,8.0,94,0.00,,,0.00,281.00,VWS V14.01,2013-07-31 13:37:00,
2013-07-31 08:42:00,68.2,65.8,30.14,North,360,2.0,5.0,92,0.00,,,0.00,229.00,VWS V14.01,2013-07-31 13:42:00,
2013-07-31 08:47:00,68.2,65.8,30.14,North,360,3.0,8.0,92,0.00,,,0.00,236.00,VWS V14.01,2013-07-31 13:47:00,
2013-07-31 08:52:00,67.9,65.5,30.14,NW,326,7.0,11.0,92,0.00,,,0.00,186.00,VWS V14.01,2013-07-31 13:52:00,
2013-07-31 08:57:00,67.7,65.3,30.15,NW,326,4.0,6.0,92,0.00,,,0.00,130.00,VWS V14.01,2013-07-31 13:57:00,
2013-07-31 09:02:00,67.3,64.6,30.15,NNW,335,1.0,5.0,91,0.00,,,0.00,107.00,VWS V14.01,2013-07-31 14:02:00,
2013-07-31 09:07:00,67.0,64.6,30.15,North,353,1.0,4.0,92,0.00,,,0.00,132.00,VWS V14.01,2013-07-31 14:07:00,
2013-07-31 09:12:00,66.9,64.5,30.15,NNW,328,2.0,7.0,92,0.00,,,0.00,195.00,VWS V14.01,2013-07-31 14:12:00,
2013-07-31 09:17:00,66.9,64.5,30.16,North,360,1.0,6.0,92,0.00,,,0.00,207.00,VWS V14.01,2013-07-31 14:17:00,
2013-07-31 09:22:00,67.2,64.8,30.16,NNE,29,2.0,5.0,92,0.00,,,0.00,248.00,VWS V14.01,2013-07-31 14:22:00,
2013-07-31 09:28:00,67.4,65.0,30.15,WNW,288,3.0,5.0,92,0.00,,,0.00,313.00,VWS V14.01,2013-07-31 14:28:00,
2013-07-31 09:33:00,67.8,65.4,30.15,NNW,338,0.0,0.0,92,0.00,,,0.00,318.00,VWS V14.01,2013-07-31 14:33:00,
2013-07-31 09:38:00,68.5,65.8,30.15,NW,313,2.0,4.0,91,0.00,,,0.00,411.00,VWS V14.01,2013-07-31 14:38:00,
2013-07-31 09:43:00,68.9,65.8,30.14,NNE,20,1.0,3.0,90,0.00,,,0.00,338.00,VWS V14.01,2013-07-31 14:43:00,
2013-07-31 09:48:00,69.2,65.8,30.14,North,5,3.0,6.0,89,0.00,,,0.00,390.00,VWS V14.01,2013-07-31 14:48:00,
2013-07-31 09:53:00,69.7,66.0,30.14,NW,304,3.0,5.0,88,0.00,,BKN031,0.00,631.00,VWS V14.01,2013-07-31 14:53:00,
2013-07-31 09:58:00,70.6,66.9,30.14,NNW,328,2.0,5.0,88,0.00,,BKN031,0.00,573.00,VWS V14.01,2013-07-31 14:58:00,
2013-07-31 10:03:00,71.0,66.9,30.14,North,5,2.0,4.0,87,0.00,,BKN031,0.00,179.00,VWS V14.01,2013-07-31 15:03:00,
2013-07-31 10:08:00,71.0,67.3,30.14,NW,320,8.0,8.0,88,0.00,,BKN031,0.00,570.00,VWS V14.01,2013-07-31 15:08:00,
2013-07-31 10:13:00,71.3,66.6,30.14,North,355,1.0,5.0,85,0.00,,BKN031,0.00,557.00,VWS V14.01,2013-07-31 15:13:00,
2013-07-31 10:18:00,72.1,67.0,30.14,North,360,2.0,7.0,84,0.00,,BKN031,0.00,568.00,VWS V14.01,2013-07-31 15:18:00,
2013-07-31 10:23:00,72.6,67.8,30.13,NNE,28,5.0,6.0,85,0.00,,BKN031,0.00,589.00,VWS V14.01,2013-07-31 15:23:00,
2013-07-31 10:28:00,72.7,67.2,30.14,NNW,329,6.0,6.0,83,0.00,,BKN031,0.00,606.00,VWS V14.01,2013-07-31 15:28:00,
2013-07-31 10:33:00,73.3,67.5,30.14,NNW,336,7.0,9.0,82,0.00,,BKN031,0.00,608.00,VWS V14.01,2013-07-31 15:33:00,
2013-07-31 10:38:00,72.8,66.6,30.14,West,264,1.0,5.0,81,0.00,,BKN031,0.00,622.00,VWS V14.01,2013-07-31 15:38:00,
2013-07-31 10:43:00,72.8,67.0,30.14,NNE,21,4.0,5.0,82,0.00,,BKN031,0.00,237.00,VWS V14.01,2013-07-31 15:43:00,
2013-07-31 10:48:00,73.2,67.0,30.14,WSW,252,0.0,5.0,81,0.00,,BKN031,0.00,631.00,VWS V14.01,2013-07-31 15:48:00,
2013-07-31 10:53:00,73.8,67.6,30.13,NNW,327,4.0,6.0,81,0.00,,BKN031,0.00,628.00,VWS V14.01,2013-07-31 15:53:00,
2013-07-31 10:58:00,73.0,67.2,30.14,North,349,2.0,9.0,82,0.00,,BKN031,0.00,302.00,VWS V14.01,2013-07-31 15:58:00,
2013-07-31 11:03:00,73.2,67.0,30.14,West,266,4.0,4.0,81,0.00,,BKN031,0.00,237.00,VWS V14.01,2013-07-31 16:03:00,
2013-07-31 11:08:00,73.1,66.6,30.14,North,5,0.0,4.0,80,0.00,,BKN031,0.00,369.00,VWS V14.01,2013-07-31 16:08:00,
2013-07-31 11:13:00,74.7,68.8,30.14,WSW,237,2.0,6.0,82,0.00,,BKN031,0.00,874.00,VWS V14.01,2013-07-31 16:13:00,
2013-07-31 11:18:00,74.0,67.1,30.14,West,264,2.0,5.0,79,0.00,,BKN031,0.00,281.00,VWS V14.01,2013-07-31 16:18:00,
2013-07-31 11:23:00,74.6,67.7,30.14,West,261,2.0,3.0,79,0.00,,BKN031,0.00,963.00,VWS V14.01,2013-07-31 16:23:00,
2013-07-31 11:28:00,74.4,67.1,30.14,West,265,0.0,5.0,78,0.00,,BKN031,0.00,260.00,VWS V14.01,2013-07-31 16:28:00,
2013-07-31 11:33:00,74.5,68.3,30.14,WSW,239,5.0,9.0,81,0.00,,SCT009,0.00,993.00,VWS V14.01,2013-07-31 16:33:00,
2013-07-31 11:38:00,74.3,68.4,30.13,SW,218,3.0,6.0,82,0.00,,SCT009,0.00,1065.00,VWS V14.01,2013-07-31 16:38:00,
2013-07-31 11:43:00,73.9,68.1,30.13,WNW,293,7.0,7.0,82,0.00,,SCT009,0.00,216.00,VWS V14.01,2013-07-31 16:43:00,
2013-07-31 11:48:00,73.0,67.2,30.13,West,264,2.0,9.0,82,0.00,,SCT009,0.00,255.00,VWS V14.01,2013-07-31 16:48:00,
2013-07-31 11:53:00,74.1,69.0,30.13,SSW,204,7.0,8.0,84,0.00,,BKN026,0.00,1014.00,VWS V14.01,2013-07-31 16:53:00,
2013-07-31 11:58:00,75.2,67.5,30.13,NW,309,1.0,5.0,77,0.00,,BKN026,0.00,420.00,VWS V14.01,2013-07-31 16:58:00,
2013-07-31 12:03:00,74.7,67.8,30.13,West,269,2.0,3.0,79,0.00,,BKN026,0.00,283.00,VWS V14.01,2013-07-31 17:03:00,
2013-07-31 12:08:00,74.4,68.2,30.13,WSW,249,1.0,4.0,81,0.00,,BKN026,0.00,383.00,VWS V14.01,2013-07-31 17:08:00,
2013-07-31 12:13:00,74.6,68.8,30.13,West,264,2.0,4.0,82,0.00,,BKN026,0.00,476.00,VWS V14.01,2013-07-31 17:13:00,
2013-07-31 12:18:00,74.7,68.1,30.13,SW,230,5.0,6.0,80,0.00,,BKN026,0.00,288.00,VWS V14.01,2013-07-31 17:18:00,
2013-07-31 12:23:00,74.4,68.2,30.13,NW,313,2.0,6.0,81,0.00,,BKN026,0.00,408.00,VWS V14.01,2013-07-31 17:23:00,
2013-07-31 12:28:00,74.5,67.6,30.13,WSW,253,4.0,7.0,79,0.00,,BKN026,0.00,584.00,VWS V14.01,2013-07-31 17:28:00,
2013-07-31 12:33:00,74.7,67.8,30.13,SW,230,5.0,6.0,79,0.00,,BKN026,0.00,327.00,VWS V14.01,2013-07-31 17:33:00,
2013-07-31 12:38:00,74.6,68.4,30.13,WSW,246,9.0,9.0,81,0.00,,BKN026,0.00,571.00,VWS V14.01,2013-07-31 17:38:00,
2013-07-31 12:43:00,75.7,69.5,30.13,WSW,247,4.0,5.0,81,0.00,,BKN026,0.00,664.00,VWS V14.01,2013-07-31 17:43:00,
2013-07-31 12:48:00,75.8,68.1,30.13,West,259,3.0,6.0,77,0.00,,BKN026,0.00,445.00,VWS V14.01,2013-07-31 17:48:00,
2013-07-31 12:53:00,75.4,67.7,30.12,WSW,237,1.0,6.0,77,0.00,,BKN037,0.00,378.00,VWS V14.01,2013-07-31 17:53:00,
2013-07-31 12:58:00,75.4,68.8,30.12,WSW,248,4.0,11.0,80,0.00,,BKN037,0.00,299.00,VWS V14.01,2013-07-31 17:58:00,
2013-07-31 13:03:00,75.4,67.7,30.12,WSW,256,3.0,10.0,77,0.00,,BKN037,0.00,411.00,VWS V14.01,2013-07-31 18:03:00,
2013-07-31 13:08:00,75.1,67.8,30.12,SW,234,6.0,7.0,78,0.00,,BKN037,0.00,343.00,VWS V14.01,2013-07-31 18:08:00,
2013-07-31 13:14:00,75.8,68.5,30.12,WSW,248,1.0,6.0,78,0.00,,BKN037,0.00,348.00,VWS V14.01,2013-07-31 18:14:00,
2013-07-31 13:19:00,76.6,67.3,30.12,WNW,290,0.0,5.0,73,0.00,,BKN037,0.00,1151.00,VWS V14.01,2013-07-31 18:19:00,
2013-07-31 13:24:00,77.2,68.3,30.11,North,360,6.0,10.0,74,0.00,,BKN037,0.00,251.00,VWS V14.01,2013-07-31 18:24:00,
2013-07-31 13:29:00,77.2,68.3,30.11,NNW,328,1.0,6.0,74,0.00,,BKN037,0.00,1116.00,VWS V14.01,2013-07-31 18:29:00,
2013-07-31 13:34:00,78.7,67.7,30.11,NNW,327,6.0,11.0,69,0.00,,BKN037,0.00,316.00,VWS V14.01,2013-07-31 18:34:00,
2013-07-31 13:39:00,77.4,66.9,30.11,NW,321,4.0,7.0,70,0.00,,BKN037,0.00,299.00,VWS V14.01,2013-07-31 18:39:00,
2013-07-31 13:44:00,78.0,69.1,30.11,NW,316,1.0,7.0,74,0.00,,BKN037,0.00,1051.00,VWS V14.01,2013-07-31 18:44:00,
2013-07-31 13:49:00,78.7,68.5,30.11,NNE,18,5.0,5.0,71,0.00,,BKN037,0.00,251.00,VWS V14.01,2013-07-31 18:49:00,
2013-07-31 13:54:00,79.0,68.0,30.11,NW,326,1.0,10.0,69,0.00,,BKN036,0.00,1014.00,VWS V14.01,2013-07-31 18:54:00,
2013-07-31 13:59:00,80.0,67.6,30.11,WNW,303,5.0,6.0,66,0.00,,BKN036,0.00,947.00,VWS V14.01,2013-07-31 18:59:00,
2013-07-31 14:04:00,79.6,67.2,30.11,NE,35,4.0,9.0,66,0.00,,BKN036,0.00,984.00,VWS V14.01,2013-07-31 19:04:00,
2013-07-31 14:09:00,80.2,67.4,30.11,NW,314,6.0,9.0,65,0.00,,BKN036,0.00,211.00,VWS V14.01,2013-07-31 19:09:00,
2013-07-31 14:14:00,78.1,67.5,30.11,NNW,328,3.0,6.0,70,0.00,,BKN036,0.00,956.00,VWS V14.01,2013-07-31 19:14:00,
2013-07-31 14:19:00,79.3,67.0,30.11,NW,326,5.0,6.0,66,0.00,,BKN036,0.00,930.00,VWS V14.01,2013-07-31 19:19:00,
2013-07-31 14:24:00,80.2,69.1,30.10,NNW,327,2.0,5.0,69,0.00,,BKN036,0.00,995.00,VWS V14.01,2013-07-31 19:24:00,
2013-07-31 14:29:00,79.1,67.2,30.10,NW,305,5.0,12.0,67,0.00,,BKN036,0.00,221.00,VWS V14.01,2013-07-31 19:29:00,
2013-07-31 14:34:00,79.5,68.0,30.10,NNW,330,2.0,6.0,68,0.00,,BKN036,0.00,919.00,VWS V14.01,2013-07-31 19:34:00,
2013-07-31 14:39:00,80.5,68.5,30.10,WNW,303,5.0,6.0,67,0.00,,BKN036,0.00,939.00,VWS V14.01,2013-07-31 19:39:00,
2013-07-31 14:44:00,80.5,68.1,30.10,NNE,21,4.0,5.0,66,0.00,,BKN036,0.00,904.00,VWS V14.01,2013-07-31 19:44:00,
2013-07-31 14:49:00,81.2,67.4,30.10,WNW,294,3.0,9.0,63,0.00,,BKN036,0.00,888.00,VWS V14.01,2013-07-31 19:49:00,
2013-07-31 14:54:00,81.7,67.9,30.10,North,360,2.0,4.0,63,0.00,,SCT043,0.00,923.00,VWS V14.01,2013-07-31 19:54:00,
2013-07-31 14:59:00,81.0,65.8,30.10,WNW,283,1.0,3.0,60,0.00,,SCT043,0.00,923.00,VWS V14.01,2013-07-31 19:59:00,
2013-07-31 15:04:00,80.9,69.8,30.09,West,276,5.0,6.0,69,0.00,,SCT043,0.00,853.00,VWS V14.01,2013-07-31 20:04:00,
2013-07-31 15:09:00,81.0,67.2,30.09,North,5,2.0,3.0,63,0.00,,SCT043,0.00,856.00,VWS V14.01,2013-07-31 20:09:00,
2013-07-31 15:14:00,80.4,67.1,30.09,West,270,1.0,4.0,64,0.00,,SCT043,0.00,953.00,VWS V14.01,2013-07-31 20:14:00,
2013-07-31 15:19:00,80.5,67.7,30.09,NW,313,9.0,10.0,65,0.00,,SCT043,0.00,939.00,VWS V14.01,2013-07-31 20:19:00,
2013-07-31 15:24:00,81.0,67.2,30.09,West,267,3.0,9.0,63,0.00,,SCT043,0.00,953.00,VWS V14.01,2013-07-31 20:24:00,
2013-07-31 15:29:00,81.4,68.5,30.09,North,10,3.0,6.0,65,0.00,,SCT043,0.00,860.00,VWS V14.01,2013-07-31 20:29:00,
2013-07-31 15:34:00,82.2,68.8,30.08,NW,312,1.0,5.0,64,0.00,,SCT043,0.00,835.00,VWS V14.01,2013-07-31 20:34:00,
2013-07-31 15:39:00,81.6,69.2,30.09,West,270,3.0,3.0,66,0.00,,SCT043,0.00,772.00,VWS V14.01,2013-07-31 20:39:00,
2013-07-31 15:44:00,80.4,68.0,30.08,West,269,2.0,7.0,66,0.00,,SCT043,0.00,199.00,VWS V14.01,2013-07-31 20:44:00,
2013-07-31 15:49:00,79.8,67.0,30.08,NNW,347,2.0,3.0,65,0.00,,SCT043,0.00,279.00,VWS V14.01,2013-07-31 20:49:00,
2013-07-31 15:54:00,80.7,68.3,30.08,North,352,2.0,5.0,66,0.00,,SCT043,0.00,861.00,VWS V14.01,2013-07-31 20:54:00,
2013-07-31 15:59:00,82.1,68.7,30.08,WSW,254,2.0,4.0,64,0.00,,SCT043,0.00,714.00,VWS V14.01,2013-07-31 20:59:00,
2013-07-31 16:04:00,82.1,67.8,30.08,SW,219,2.0,10.0,62,0.00,,SCT043,0.00,867.00,VWS V14.01,2013-07-31 21:04:00,
2013-07-31 16:09:00,81.8,68.4,30.07,SW,234,3.0,6.0,64,0.00,,SCT043,0.00,851.00,VWS V14.01,2013-07-31 21:09:00,
2013-07-31 16:14:00,82.4,69.5,30.07,West,272,1.0,5.0,65,0.00,,SCT043,0.00,796.00,VWS V14.01,2013-07-31 21:14:00,
2013-07-31 16:19:00,81.1,66.9,30.07,WNW,282,3.0,5.0,62,0.00,,SCT043,0.00,165.00,VWS V14.01,2013-07-31 21:19:00,
2013-07-31 16:24:00,80.4,68.0,30.07,NNW,345,1.0,6.0,66,0.00,,SCT043,0.00,766.00,VWS V14.01,2013-07-31 21:24:00,
2013-07-31 16:29:00,80.2,67.8,30.07,NW,316,6.0,7.0,66,0.00,,SCT043,0.00,251.00,VWS V14.01,2013-07-31 21:29:00,
2013-07-31 16:34:00,80.7,66.9,30.07,NW,320,0.0,2.0,63,0.00,,SCT043,0.00,181.00,VWS V14.01,2013-07-31 21:34:00,
2013-07-31 16:39:00,81.2,68.3,30.07,NW,320,6.0,6.0,65,0.00,,SCT043,0.00,712.00,VWS V14.01,2013-07-31 21:39:00,
2013-07-31 16:44:00,81.7,68.3,30.07,NW,305,1.0,4.0,64,0.00,,SCT043,0.00,680.00,VWS V14.01,2013-07-31 21:44:00,
2013-07-31 16:49:00,82.3,67.5,30.07,WNW,283,5.0,6.0,61,0.00,,SCT043,0.00,652.00,VWS V14.01,2013-07-31 21:49:00,
2013-07-31 16:54:00,82.0,68.2,30.07,WSW,254,1.0,3.0,63,0.00,,SCT046,0.00,617.00,VWS V14.01,2013-07-31 21:54:00,
2013-07-31 16:59:00,82.4,67.6,30.07,NW,318,4.0,10.0,61,0.00,,SCT046,0.00,628.00,VWS V14.01,2013-07-31 21:59:00,
2013-07-31 17:04:00,82.9,68.6,30.06,WSW,255,0.0,5.0,62,0.00,,SCT046,0.00,591.00,VWS V14.01,2013-07-31 22:04:00,
2013-07-31 17:09:00,81.9,68.1,30.06,WNW,284,2.0,6.0,63,0.00,,SCT046,0.00,487.00,VWS V14.01,2013-07-31 22:09:00,
2013-07-31 17:14:00,81.6,67.8,30.06,West,268,0.0,2.0,63,0.00,,SCT046,0.00,102.00,VWS V14.01,2013-07-31 22:14:00,
2013-07-31 17:20:00,80.7,66.9,30.06,NNE,24,0.0,1.0,63,0.00,,SCT046,0.00,573.00,VWS V14.01,2013-07-31 22:20:00,
2013-07-31 17:25:00,81.6,66.9,30.06,WNW,283,0.0,6.0,61,0.00,,SCT046,0.00,552.00,VWS V14.01,2013-07-31 22:25:00,
2013-07-31 17:30:00,81.8,68.4,30.05,WSW,254,4.0,5.0,64,0.00,,SCT046,0.00,534.00,VWS V14.01,2013-07-31 22:30:00,
2013-07-31 17:35:00,81.6,66.9,30.06,West,265,6.0,7.0,61,0.00,,SCT046,0.00,534.00,VWS V14.01,2013-07-31 22:35:00,
2013-07-31 17:40:00,82.1,66.8,30.05,NNW,340,3.0,5.0,60,0.00,,SCT046,0.00,510.00,VWS V14.01,2013-07-31 22:40:00,
2013-07-31 17:45:00,82.3,67.5,30.05,NNE,15,4.0,5.0,61,0.00,,SCT046,0.00,469.00,VWS V14.01,2013-07-31 22:45:00,
2013-07-31 17:50:00,81.8,68.0,30.05,NNE,15,2.0,5.0,63,0.00,,SCT040,0.00,452.00,VWS V14.01,2013-07-31 22:50:00,
2013-07-31 17:55:00,81.6,67.3,30.05,NNW,331,3.0,4.0,62,0.00,,SCT040,0.00,401.00,VWS V14.01,2013-07-31 22:55:00,
2013-07-31 18:00:00,81.4,67.6,30.05,North,355,5.0,5.0,63,0.00,,SCT040,0.00,209.00,VWS V14.01,2013-07-31 23:00:00,
2013-07-31 18:05:00,81.1,67.3,30.05,West,266,1.0,4.0,63,0.00,,SCT040,0.00,127.00,VWS V14.01,2013-07-31 23:05:00,
2013-07-31 18:10:00,80.9,67.1,30.05,NW,317,6.0,6.0,63,0.00,,SCT040,0.00,141.00,VWS V14.01,2013-07-31 23:10:00,
2013-07-31 18:15:00,80.9,67.6,30.05,NW,310,3.0,5.0,64,0.00,,SCT040,0.00,86.00,VWS V14.01,2013-07-31 23:15:00,
2013-07-31 18:20:00,80.8,67.9,30.04,NNE,14,3.0,3.0,65,0.00,,SCT040,0.00,100.00,VWS V14.01,2013-07-31 23:20:00,
2013-07-31 18:25:00,80.3,67.5,30.04,NNW,329,0.0,2.0,65,0.00,,SCT040,0.00,69.00,VWS V14.01,2013-07-31 23:25:00,
2013-07-31 18:30:00,79.8,67.4,30.04,West,261,5.0,5.0,66,0.00,,SCT040,0.00,72.00,VWS V14.01,2013-07-31 23:30:00,
2013-07-31 18:35:00,79.9,67.1,30.04,NNW,332,4.0,4.0,65,0.00,,SCT040,0.00,91.00,VWS V14.01,2013-07-31 23:35:00,
2013-07-31 18:40:00,79.8,67.4,30.04,North,356,1.0,2.0,66,0.00,,SCT040,0.00,95.00,VWS V14.01,2013-07-31 23:40:00,
2013-07-31 18:45:00,79.8,67.0,30.04,NW,304,2.0,5.0,65,0.00,,SCT040,0.00,62.00,VWS V14.01,2013-07-31 23:45:00,
2013-07-31 18:50:00,79.7,67.3,30.04,North,360,0.0,3.0,66,0.00,,SCT042,0.00,62.00,VWS V14.01,2013-07-31 23:50:00,
2013-07-31 18:55:00,79.6,67.2,30.03,NW,319,2.0,4.0,66,0.00,,SCT042,0.00,56.00,VWS V14.01,2013-07-31 23:55:00,
2013-07-31 19:00:00,79.5,67.2,30.04,NW,317,0.0,4.0,66,0.00,,SCT042,0.00,60.00,VWS V14.01,2013-08-01 00:00:00,
2013-07-31 19:05:00,79.5,67.2,30.03,NW,317,0.0,0.0,66,0.00,,SCT042,0.00,58.00,VWS V14.01,2013-08-01 00:05:00,
2013-07-31 19:10:00,79.3,67.4,30.03,NW,317,0.0,1.0,67,0.00,,SCT042,0.00,47.00,VWS V14.01,2013-08-01 00:10:00,
2013-07-31 19:15:00,79.1,67.2,30.04,NW,317,2.0,2.0,67,0.00,,SCT042,0.00,49.00,VWS V14.01,2013-08-01 00:15:00,
2013-07-31 19:20:00,78.9,67.9,30.03,NW,317,0.0,3.0,69,0.00,,SCT042,0.00,42.00,VWS V14.01,2013-08-01 00:20:00,
2013-07-31 19:25:00,78.7,67.7,30.04,NW,317,0.0,0.0,69,0.00,,SCT042,0.00,42.00,VWS V14.01,2013-08-01 00:25:00,
2013-07-31 19:30:00,78.6,68.0,30.04,NW,317,0.0,1.0,70,0.00,,SCT042,0.00,40.00,VWS V14.01,2013-08-01 00:30:00,
2013-07-31 19:35:00,78.5,67.9,30.04,NW,317,0.0,1.0,70,0.00,,SCT042,0.00,37.00,VWS V14.01,2013-08-01 00:35:00,
2013-07-31 19:40:00,78.4,67.8,30.04,NW,317,0.0,1.0,70,0.00,,SCT042,0.00,33.00,VWS V14.01,2013-08-01 00:40:00,
2013-07-31 19:45:00,78.2,67.6,30.04,NW,317,0.0,0.0,70,0.00,,SCT042,0.00,30.00,VWS V14.01,2013-08-01 00:45:00,
2013-07-31 19:50:00,78.0,67.4,30.04,NW,317,0.0,0.0,70,0.00,,CLR,0.00,30.00,VWS V14.01,2013-08-01 00:50:00,
2013-07-31 19:55:00,77.5,68.6,30.04,NW,317,0.0,0.0,74,0.00,,CLR,0.00,25.00,VWS V14.01,2013-08-01 00:55:00,
2013-07-31 20:00:00,76.5,69.9,30.04,NW,317,1.0,1.0,80,0.00,,CLR,0.00,21.00,VWS V14.01,2013-08-01 01:00:00,
2013-07-31 20:05:00,75.4,69.5,30.04,NW,317,0.0,1.0,82,0.00,,CLR,0.00,16.00,VWS V14.01,2013-08-01 01:05:00,
2013-07-31 20:10:00,74.8,69.3,30.04,NW,317,0.0,0.0,83,0.00,,CLR,0.00,14.00,VWS V14.01,2013-08-01 01:10:00,
2013-07-31 20:15:00,74.6,69.4,30.04,NW,317,0.0,0.0,84,0.00,,CLR,0.00,11.00,VWS V14.01,2013-08-01 01:15:00,
2013-07-31 20:20:00,74.3,69.2,30.04,NW,317,0.0,0.0,84,0.00,,CLR,0.00,7.00,VWS V14.01,2013-08-01 01:20:00,
2013-07-31 20:25:00,74.1,69.3,30.04,NW,317,0.0,0.0,85,0.00,,CLR,0.00,5.00,VWS V14.01,2013-08-01 01:25:00,
2013-07-31 20:30:00,73.8,69.0,30.04,NW,317,0.0,0.0,85,0.00,,CLR,0.00,0.00,VWS V14.01,2013-08-01 01:30:00,
2013-07-31 20:35:00,73.5,68.7,30.04,NW,317,0.0,0.0,85,0.00,,CLR,0.00,0.00,VWS V14.01,2013-08-01 01:35:00,
2013-07-31 20:41:00,73.2,68.8,30.04,NW,317,0.0,0.0,86,0.00,,CLR,0.00,0.00,VWS V14.01,2013-08-01 01:41:00,
2013-07-31 20:46:00,73.0,68.2,30.04,NNW,340,0.0,0.0,85,0.00,,CLR,0.00,0.00,VWS V14.01,2013-08-01 01:46:00,
2013-07-31 20:51:00,72.8,68.4,30.04,NNW,340,0.0,0.0,86,0.00,,CLR,0.00,0.00,VWS V14.01,2013-08-01 01:51:00,
2013-07-31 20:56:00,72.6,68.2,30.04,NNW,340,0.0,0.0,86,0.00,,CLR,0.00,0.00,VWS V14.01,2013-08-01 01:56:00,
2013-07-31 21:01:00,72.3,68.2,30.04,NNW,340,0.0,0.0,87,0.00,,SCT050,0.00,0.00,VWS V14.01,2013-08-01 02:01:00,
2013-07-31 21:06:00,71.9,68.5,30.05,NNW,340,0.0,0.0,89,0.00,,SCT050,0.00,0.00,VWS V14.01,2013-08-01 02:06:00,
2013-07-31 21:11:00,71.7,68.3,30.05,NNW,340,0.0,0.0,89,0.00,,SCT050,0.00,0.00,VWS V14.01,2013-08-01 02:11:00,
2013-07-31 21:16:00,71.5,68.4,30.05,NNW,340,0.0,0.0,90,0.00,,SCT050,0.00,0.00,VWS V14.01,2013-08-01 02:16:00,
2013-07-31 21:21:00,71.3,68.2,30.05,NNW,340,0.0,0.0,90,0.00,,SCT050,0.00,0.00,VWS V14.01,2013-08-01 02:21:00,
2013-07-31 21:26:00,71.2,68.1,30.05,NNW,340,0.0,0.0,90,0.00,,SCT050,0.00,0.00,VWS V14.01,2013-08-01 02:26:00,
2013-07-31 21:31:00,71.0,67.9,30.05,NNW,340,0.0,0.0,90,0.00,,SCT050,0.00,0.00,VWS V14.01,2013-08-01 02:31:00,
2013-07-31 21:36:00,71.0,68.2,30.06,NNW,340,0.0,0.0,91,0.00,,SCT050,0.00,0.00,VWS V14.01,2013-08-01 02:36:00,
2013-07-31 21:41:00,70.7,67.9,30.05,NNW,340,0.0,0.0,91,0.00,,SCT050,0.00,0.00,VWS V14.01,2013-08-01 02:41:00,
2013-07-31 21:46:00,70.7,67.9,30.06,NNW,340,0.0,0.0,91,0.00,,SCT050,0.00,0.00,VWS V14.01,2013-08-01 02:46:00,
2013-07-31 21:51:00,70.7,67.9,30.06,NNW,340,0.0,0.0,91,0.00,,SCT050,0.00,0.00,VWS V14.01,2013-08-01 02:51:00,
2013-07-31 21:56:00,70.7,67.9,30.06,NNW,340,0.0,0.0,91,0.00,,SCT050,0.00,0.00,VWS V14.01,2013-08-01 02:56:00,
2013-07-31 22:01:00,70.7,67.9,30.06,NNW,340,0.0,0.0,91,0.00,,SCT060,0.00,0.00,VWS V14.01,2013-08-01 03:01:00,
2013-07-31 22:06:00,70.7,67.9,30.06,NNW,340,0.0,0.0,91,0.00,,SCT060,0.00,0.00,VWS V14.01,2013-08-01 03:06:00,
2013-07-31 22:11:00,70.5,67.8,30.06,NNW,340,0.0,0.0,91,0.00,,SCT060,0.00,0.00,VWS V14.01,2013-08-01 03:11:00,
2013-07-31 22:16:00,70.3,67.6,30.06,NNW,340,0.0,0.0,91,0.00,,SCT060,0.00,0.00,VWS V14.01,2013-08-01 03:16:00,
2013-07-31 22:21:00,69.9,67.2,30.06,NNW,340,0.0,0.0,91,0.00,,SCT060,0.00,0.00,VWS V14.01,2013-08-01 03:21:00,
2013-07-31 22:26:00,69.7,67.0,30.06,NNW,340,0.0,0.0,91,0.00,,SCT060,0.00,0.00,VWS V14.01,2013-08-01 03:26:00,
2013-07-31 22:31:00,69.4,67.0,30.06,NNW,340,0.0,0.0,92,0.00,,SCT060,0.00,0.00,VWS V14.01,2013-08-01 03:31:00,
2013-07-31 22:36:00,69.2,66.8,30.06,NNW,340,0.0,0.0,92,0.00,,SCT060,0.00,0.00,VWS V14.01,2013-08-01 03:36:00,
2013-07-31 22:41:00,68.9,66.5,30.07,NNW,340,0.0,0.0,92,0.00,,BKN065,0.00,0.00,VWS V14.01,2013-08-01 03:41:00,
2013-07-31 22:46:00,68.6,66.2,30.07,NNW,340,0.0,0.0,92,0.00,,BKN065,0.00,0.00,VWS V14.01,2013-08-01 03:46:00,
2013-07-31 22:51:00,68.6,66.5,30.07,NNW,340,0.0,0.0,93,0.00,,BKN065,0.00,0.00,VWS V14.01,2013-08-01 03:51:00,
2013-07-31 22:56:00,68.6,66.2,30.07,NNW,340,0.0,0.0,92,0.00,,BKN065,0.00,0.00,VWS V14.01,2013-08-01 03:56:00,
2013-07-31 23:01:00,68.4,66.0,30.07,NNW,340,0.0,0.0,92,0.00,,SCT065,0.00,0.00,VWS V14.01,2013-08-01 04:01:00,
2013-07-31 23:02:00,68.4,66.0,30.07,NNW,340,0.0,0.0,92,0.00,,SCT065,0.00,0.00,VWS V14.01,2013-08-01 04:02:00,
2013-07-31 23:03:00,68.3,65.9,30.07,NNW,340,0.0,0.0,92,0.00,,SCT065,0.00,0.00,VWS V14.01,2013-08-01 04:03:00,
2013-07-31 23:08:00,68.3,65.9,30.07,NNW,340,0.0,0.0,92,0.00,,SCT065,0.00,0.00,VWS V14.01,2013-08-01 04:08:00,
2013-07-31 23:13:00,68.2,65.8,30.07,NNW,340,0.0,0.0,92,0.00,,SCT065,0.00,0.00,VWS V14.01,2013-08-01 04:13:00,
2013-07-31 23:18:00,68.0,65.6,30.07,NNW,340,0.0,0.0,92,0.00,,SCT065,0.00,0.00,VWS V14.01,2013-08-01 04:18:00,
2013-07-31 23:23:00,67.9,65.5,30.07,NNW,340,0.0,0.0,92,0.00,,SCT065,0.00,0.00,VWS V14.01,2013-08-01 04:23:00,
2013-07-31 23:28:00,67.8,65.4,30.07,NNW,340,0.0,0.0,92,0.00,,SCT065,0.00,0.00,VWS V14.01,2013-08-01 04:28:00,
2013-07-31 23:33:00,67.7,65.3,30.07,NNW,340,0.0,0.0,92,0.00,,SCT065,0.00,0.00,VWS V14.01,2013-08-01 04:33:00,
2013-07-31 23:38:00,67.6,65.2,30.08,NNW,340,0.0,0.0,92,0.00,,SCT065,0.00,0.00,VWS V14.01,2013-08-01 04:38:00,
2013-07-31 23:43:00,67.2,64.8,30.08,NNW,340,0.0,0.0,92,0.00,,SCT065,0.00,0.00,VWS V14.01,2013-08-01 04:43:00,
2013-07-31 23:48:00,67.1,64.7,30.08,NNW,340,0.0,0.0,92,0.00,,SCT065,0.00,0.00,VWS V14.01,2013-08-01 04:48:00,
2013-07-31 23:53:00,66.9,64.5,30.08,NNW,340,0.0,0.0,92,0.00,,SCT065,0.00,0.00,VWS V14.01,2013-08-01 04:53:00,
2013-07-31 23:58:00,66.8,64.4,30.08,NNW,340,0.0,0.0,92,0.00,,SCT065,0.00,0.00,VWS V14.01,2013-08-01 04:58:00,